SCP
-0 0 0 0 0 0 0 0 0 0 0 0 0 0 0 0 0 0 0 -0 0 0 0 0 0 -0 0 0 -0 -0 -0 -0 -0 -0 -0 -0 -0 -0 -0 -0 -0 -0 -0
-0 0 0 0 -0 0 0 0 0 0 0 0 0 0 0 0 0 0 0 0 0 0 0 0 0 0 -0 -0 -0 -0 0 0 -0 -0 -0 -0 -0 -0 -0 -0 -0 -0 -0
0 0 0 0 0 0 0 0 0 0 0 0 0 0 0 0 0 0 0 0 0 0 0 0 0 0 0 -0 -0 -0 0 -0 0 0 0 0 -0 -0 -0 -0 -0 -0 -0
0 0 0 0 0 0 0 0 0 0 0 0 0 0 -0 -0 -0 0 0 0 0 0 0 0 0 0 0 0 0 0 0 -0 0 0 0 0 0 -0 -0 -0 -0 -0 -0
0 0 0 0 0 0 0 0 0 0 0 0 0 0 0 0 0 0 0 0 0 0 0 0 0 0 0 0 0 0 0 -0 0 0 0 0 0 0 0 0 -0 -0 -0
0 0 0 0 0 0 0 0 0 0 0 0 0 0 0 0 0 0 0 0 0 0 0 0 0 0 0 0 0 0 0 0 0 0 0 0 0 0 0 0 -0 -0 -0
0 0 0 0 0 0 0 0 0 0 0 0 0 0 0 0 0 0 0 0 0 0 0 0 0 0 0 0 0 0 0 0 0 0 0 0 0 0 0 0 0 0 -0
0 0 0 0 0 0 0 0 0 0 0 0 0 0 0 0 0 0 0 0 0 0 0 0 0 0 0 0 0 0 0 0 0 0 0 0 0 0 0 0 0 0 0
0 0 0 0 0 0 0 0 0 0 0 0 0 0 0 0 0 0 0 0 0 0 0 0 0 0 0 0 0 0 0 0 0 0 0 0 0 0 0 0 0 0 0
0 -0 -0 0 0 0 0 0 0 0 0 0 0 0 0 0 0 0 0 0 0 0 0 0 0 0 0 0 0 0 0 0 0 0 0 0 0 0 0 0 0 0 0
0 0 0 0 0 0 0 0 0 0 0 0 0 0 0 0 0 0 0 0 0 0 0 0 0 0 0 0 0 0 0 0 0 0 0 0 0 0 0 0 0 0 0
0 0 0 0 0 0 0 0 0 0 0 0 0 0 0 0 0 0 0 0 0 0 0 0 0 0 0 0 0 0 0 0 0 0 0 0 0 0 0 0 0 0 0
0 0 0 0 0 0 0 1 0 0 0 0 0 0 0 0 0 0 0 0 0 0 0 0 0 0 0 0 0 0 0 0 0 0 0 0 0 0 0 0 0 0 0
0 0 0 0 0 0 0 0 0 0 0 0 0 0 0 0 0 0 0 0 0 0 0 0 0 0 0 0 0 0 0 0 0 0 0 0 0 0 0 0 0 0 0
0 0 0 0 0 0 0 0 0 0 0 0 0 0 0 0 0 0 0 0 0 0 0 0 0 0 0 0 0 0 0 0 0 0 0 0 0 0 0 0 0 0 0
0 0 0 0 0 0 0 0 0 0 0 0 0 0 0 0 0 0 0 0 0 0 0 0 0 0 0 0 0 0 0 0 0 0 0 0 0 0 0 0 0 0 0
0 0 0 0 0 0 0 0 0 0 0 0 0 0 0 0 0 0 0 0 0 0 0 0 0 0 0 0 0 0 0 0 0 0 0 0 0 0 0 0 0 0 0
0 0 0 0 0 0 0 0 0 0 0 0 0 0 0 0 0 0 0 0 0 0 0 0 0 0 0 0 0 0 0 0 0 0 0 0 0 0 0 0 0 0 0
0 0 0 0 0 0 0 0 0 0 0 0 0 0 0 0 0 0 0 0 0 0 0 0 0 0 0 0 0 0 0 0 0 0 0 0 0 0 0 0 0 0 0
0 0 0 0 0 0 0 0 0 0 0 0 0 0 0 0 0 0 0 0 0 0 0 0 0 0 0 0 0 0 0 0 0 0 0 0 0 0 0 0 0 0 0
0 0 0 0 0 0 0 0 0 0 0 0 0 0 0 0 0 0 0 0 0 0 0 0 0 0 0 0 0 0 0 0 0 0 0 0 0 0 0 0 0 0 0
0 0 0 0 0 0 0 0 0 0 0 0 0 0 0 0 0 0 0 0 0 0 0 0 0 0 0 0 0 0 0 0 0 0 0 0 0 0 0 0 0 0 0
0 0 0 0 0 0 0 0 0 0 0 0 0 0 0 0 0 0 0 0 0 0 0 0 0 0 0 0 0 0 0 0 0 0 0 0 0 0 0 0 0 0 0
0 0 0 0 0 0 0 0 0 0 0 0 0 0 0 0 0 0 0 0 0 0 0 0 0 0 0 0 0 0 0 0 0 0 0 0 0 0 0 0 0 0 0
0 0 0 0 0 0 0 0 0 0 0 0 0 0 0 0 0 0 0 0 0 0 0 0 0 0 0 0 0 0 0 0 0 0 0 0 0 0 0 0 0 0 0
0 0 0 0 0 0 0 0 0 0 0 0 0 0 0 0 0 0 0 0 0 0 0 0 0 0 0 0 0 0 0 0 0 0 0 0 0 0 0 0 0 0 0
Wind_Speed_500mb
12 9 10 11 11 10 11 7 11 10 9 12 15 14 10 9 11 17 15 15 19 19 21 18 20 18 19 21 22 24 25 24 24 25 25 27 29 29 29 30 31 34 35
11 11 10 9 9 11 11 5 7 7 8 11 13 12 11 10 8 8 12 10 13 16 19 20 17 17 20 19 18 19 21 23 26 25 23 26 24 22 24 27 30 32 34
6 8 9 6 7 10 9 1 3 7 7 12 14 15 10 10 9 6 4 8 7 10 14 16 19 20 22 18 18 18 21 26 21 20 19 20 24 19 23 26 28 31 34
6 9 13 8 6 10 8 6 2 4 8 14 15 15 13 10 5 5 10 3 6 5 7 9 11 12 14 11 13 16 21 29 24 18 14 15 12 15 19 23 26 28 32
13 15 6 5 6 7 4 1 3 5 8 10 13 15 13 11 7 4 8 6 4 7 2 3 3 4 7 4 5 12 20 25 22 15 6 8 3 11 14 15 19 21 24
12 6 3 2 5 4 2 2 5 4 4 6 9 11 11 9 8 6 7 6 7 7 4 6 3 4 4 4 2 7 15 19 19 10 7 6 8 8 8 10 12 14 18
9 6 11 6 4 2 3 4 5 5 5 5 8 9 9 8 7 7 7 7 8 7 5 5 10 9 11 7 5 5 12 16 12 5 5 7 7 9 1 5 8 10 11
13 2 20 21 16 13 10 9 12 10 11 9 11 12 12 11 9 9 9 9 9 8 7 10 13 15 13 13 9 6 10 8 11 4 11 15 15 12 10 4 3 2 3
11 4 6 10 19 21 18 16 19 20 16 12 13 13 13 14 13 12 12 11 10 11 11 11 13 16 18 15 17 15 12 10 13 5 12 16 14 13 7 4 3 3 4
8 7 8 13 14 14 23 17 22 24 21 18 17 14 17 18 16 16 16 13 13 14 14 15 15 15 18 19 18 17 20 17 15 15 22 23 24 18 7 4 4 4 6
2 5 8 10 10 7 3 15 16 16 19 19 19 21 28 21 18 29 24 22 22 20 19 19 19 18 19 21 23 23 24 23 19 13 19 30 31 26 18 15 11 7 7
9 10 11 11 16 8 18 10 9 15 14 20 21 26 16 23 14 22 38 37 30 26 23 22 22 24 21 23 22 19 28 25 26 29 28 33 35 32 24 22 22 20 17
12 13 17 16 9 11 13 22 27 29 21 24 20 14 16 14 11 24 30 33 33 31 25 26 22 21 24 23 18 26 26 22 23 28 38 40 38 34 31 27 25 24 25
19 21 23 22 16 6 6 23 22 27 32 29 33 32 26 28 25 20 12 20 35 38 36 26 29 32 33 29 29 32 30 26 26 22 35 37 31 34 35 31 28 28 27
20 20 26 25 27 19 17 20 21 13 18 26 30 34 40 37 38 38 35 25 18 23 35 33 32 31 34 39 35 30 29 29 32 28 39 41 44 41 37 35 32 31 29
19 22 25 29 28 23 24 26 27 20 22 24 20 19 27 37 45 46 47 48 46 36 28 30 35 36 36 36 40 37 40 39 39 36 46 48 51 44 38 38 35 34 33
17 16 24 23 21 23 26 27 27 29 22 21 18 18 26 26 25 28 34 44 52 59 59 44 41 39 43 42 44 43 45 45 47 46 50 57 56 45 36 38 37 36 36
15 18 20 22 22 20 23 18 16 21 19 22 21 28 29 32 32 33 30 30 34 39 45 56 64 58 54 51 54 55 53 51 53 52 53 57 59 50 42 39 40 39 39
10 11 14 16 20 24 18 18 18 17 20 25 28 30 31 32 32 39 41 38 29 36 46 45 43 49 60 68 57 52 55 49 52 58 57 58 62 59 51 44 40 41 42
9 9 12 16 18 21 24 24 28 29 23 27 36 40 34 40 40 36 41 43 37 39 39 40 46 46 50 56 59 58 55 51 59 59 65 61 64 65 60 55 50 46 44
3 5 8 17 23 27 35 39 38 41 39 46 47 41 39 42 49 46 46 41 43 41 41 39 43 45 52 45 62 66 64 70 51 59 69 70 64 69 66 61 60 54 48
9 10 13 18 27 32 36 35 39 38 44 55 50 44 40 47 52 50 51 48 42 45 42 45 42 43 47 45 49 52 49 62 79 74 62 69 67 69 71 66 63 62 56
13 16 26 31 24 27 30 37 44 51 55 61 56 56 60 53 50 53 57 50 48 50 53 49 46 45 48 47 45 40 25 23 39 44 63 74 69 66 73 73 66 63 62
18 20 29 23 28 28 35 42 51 53 59 60 63 65 63 57 58 55 57 58 58 55 55 54 50 46 45 44 39 43 46 54 49 25 58 44 57 68 71 70 71 63 60
22 25 31 32 26 33 42 49 53 56 60 67 65 66 69 67 61 59 59 58 64 63 62 65 60 55 54 61 56 50 51 55 55 65 59 69 44 23 54 68 67 65 60
19 24 25 29 34 38 45 51 55 61 62 67 65 67 67 65 62 60 59 61 63 61 63 67 65 68 66 56 56 56 56 51 53 56 60 75 84 68 48 42 39 51 57
Wind_Direction_500mb
316 142 142 143 122 108 96 82 59 68 44 47 32 30 38 52 55 51 53 51 54 53 52 64 78 59 66 74 83 89 91 88 78 70 61 55 61 59 56 48 47 51 49
252 143 134 151 140 126 111 94 54 26 17 24 23 26 35 34 39 47 41 46 54 49 48 63 64 82 81 78 87 94 92 84 74 67 66 50 45 56 54 48 45 49 46
151 101 119 120 114 131 121 190 22 14 19 34 29 31 32 32 32 25 343 14 25 31 43 68 67 61 75 76 77 84 93 89 79 59 53 56 18 43 51 43 43 47 44
137 39 84 82 109 133 128 214 338 61 43 45 38 35 37 38 26 9 354 303 4 10 30 53 90 88 88 67 70 86 94 96 75 54 79 41 353 49 56 48 46 40 41
111 158 274 52 99 121 165 114 61 49 43 21 23 28 36 43 25 352 345 19 335 334 278 35 99 114 121 99 75 98 103 102 86 67 6 308 314 62 54 57 46 42 41
135 217 313 108 119 129 120 13 10 14 8 2 10 15 25 37 31 18 5 359 340 339 274 256 261 239 230 195 123 126 124 111 84 81 72 346 15 0 60 62 50 44 41
119 339 53 33 13 8 345 331 311 289 302 335 342 350 0 14 15 6 0 352 340 321 279 266 240 247 254 263 244 179 162 124 90 83 300 250 282 294 276 40 34 30 42
115 61 46 41 30 20 14 357 338 321 308 324 321 324 332 342 346 341 343 344 342 327 293 267 252 243 257 258 265 237 200 172 127 246 272 276 293 288 259 265 312 333 57
93 68 324 23 341 6 19 37 26 10 352 320 306 309 316 323 327 325 317 320 328 331 318 297 272 248 251 258 263 263 248 218 161 169 262 277 283 310 234 235 263 182 177
126 93 15 327 307 321 320 334 348 345 355 357 2 345 329 310 312 325 315 319 317 319 315 306 289 268 258 256 259 276 266 249 213 224 241 268 274 279 229 204 199 206 199
208 6 190 201 7 317 80 282 303 320 336 349 8 352 360 0 337 327 321 327 321 310 303 301 299 288 271 263 264 284 280 256 227 232 262 264 271 274 250 237 239 239 210
349 308 278 257 254 327 345 332 315 309 316 311 310 307 318 346 329 300 306 306 310 302 295 289 290 291 281 273 269 290 297 272 245 222 232 251 262 270 263 249 248 247 237
55 44 28 22 305 6 335 272 266 277 281 284 296 287 288 261 279 312 325 328 322 312 302 297 293 286 284 273 263 269 282 285 239 265 242 247 257 264 262 255 250 247 245
59 60 54 51 48 56 299 268 281 270 270 285 278 277 282 278 284 287 266 301 308 305 310 313 306 300 292 277 269 249 254 250 271 250 267 278 272 264 260 254 252 251 250
67 62 62 63 52 43 33 29 20 351 293 290 284 278 273 274 276 277 276 272 276 297 302 297 279 277 280 284 282 266 246 242 256 245 249 257 263 267 262 254 250 252 250
75 64 66 56 48 47 46 35 23 41 22 21 1 324 288 280 277 277 275 275 271 268 264 264 274 281 272 276 272 274 258 246 230 240 247 252 259 265 257 254 249 248 250
68 53 65 51 55 51 44 35 20 10 11 7 4 347 327 334 327 308 291 280 275 268 267 261 255 252 254 256 259 256 263 264 249 234 240 249 255 260 254 248 249 246 247
76 47 31 44 27 33 31 21 18 357 7 351 355 332 322 326 322 314 306 301 303 296 287 274 259 257 256 255 257 259 255 253 259 249 240 247 254 255 252 247 244 243 243
83 64 38 20 22 1 7 350 346 338 345 335 321 313 314 316 315 314 309 304 298 297 303 302 296 267 266 256 260 266 260 253 256 256 246 242 251 256 252 248 244 242 240
97 41 21 359 355 350 341 333 333 336 335 322 323 321 325 316 314 310 308 309 304 295 294 302 302 295 271 262 263 257 254 263 255 254 254 245 247 252 252 248 244 242 240
13 311 2 336 335 342 337 336 335 337 331 322 326 322 317 306 309 305 305 311 305 298 296 296 295 300 299 287 274 266 266 250 251 255 255 252 243 250 252 248 246 244 242
244 294 298 311 326 334 327 329 323 322 308 311 320 312 302 297 297 300 301 298 299 299 297 290 288 292 290 296 293 286 288 270 254 245 252 257 254 243 251 251 248 246 244
285 277 289 305 313 310 319 310 311 307 312 315 317 309 306 308 299 296 298 295 290 288 289 288 289 283 287 288 284 281 274 256 269 261 257 252 254 249 247 252 251 247 245
267 279 287 291 286 300 299 301 308 312 311 311 306 308 309 305 298 294 292 291 289 289 285 285 285 282 279 286 285 273 273 271 275 278 249 242 237 247 249 243 253 253 246
268 272 265 277 294 292 296 311 310 307 304 305 306 304 303 304 302 300 298 293 286 283 283 278 277 278 276 273 274 278 278 270 271 266 271 257 242 243 233 244 247 252 253
267 269 277 281 294 297 308 307 305 306 307 307 308 307 305 304 301 297 293 285 283 286 284 280 278 271 269 272 274 268 267 266 262 266 265 263 263 245 255 226 226 243 255
Wind_Speed_850mb
12 9 10 11 11 10 11 7 11 10 9 12 15 14 10 9 11 17 15 15 19 19 21 18 20 18 19 21 22 24 25 24 24 25 25 27 29 29 29 30 31 34 35
11 11 10 9 9 11 11 5 7 7 8 11 13 12 11 10 8 8 12 10 13 16 19 20 17 17 20 19 18 19 21 23 26 25 23 26 24 22 24 27 30 32 34
6 8 9 6 7 10 9 1 3 7 7 12 14 15 10 10 9 6 4 8 7 10 14 16 19 20 22 18 18 18 21 26 21 20 19 20 24 19 23 26 28 31 34
6 9 13 8 6 10 8 6 2 4 8 14 15 15 13 10 5 5 10 3 6 5 7 9 11 12 14 11 13 16 21 29 24 18 14 15 12 15 19 23 26 28 32
13 15 6 5 6 7 4 1 3 5 8 10 13 15 13 11 7 4 8 6 4 7 2 3 3 4 7 4 5 12 20 25 22 15 6 8 3 11 14 15 19 21 24
12 6 3 2 5 4 2 2 5 4 4 6 9 11 11 9 8 6 7 6 7 7 4 6 3 4 4 4 2 7 15 19 19 10 7 6 8 8 8 10 12 14 18
9 6 11 6 4 2 3 4 5 5 5 5 8 9 9 8 7 7 7 7 8 7 5 5 10 9 11 7 5 5 12 16 12 5 5 7 7 9 1 5 8 10 11
13 2 20 21 16 13 10 9 12 10 11 9 11 12 12 11 9 9 9 9 9 8 7 10 13 15 13 13 9 6 10 8 11 4 11 15 15 12 10 4 3 2 3
11 4 6 10 19 21 18 16 19 20 16 12 13 13 13 14 13 12 12 11 10 11 11 11 13 16 18 15 17 15 12 10 13 5 12 16 14 13 7 4 3 3 4
8 7 8 13 14 14 23 17 22 24 21 18 17 14 17 18 16 16 16 13 13 14 14 15 15 15 18 19 18 17 20 17 15 15 22 23 24 18 7 4 4 4 6
2 5 8 10 10 7 3 15 16 16 19 19 19 21 28 21 18 29 24 22 22 20 19 19 19 18 19 21 23 23 24 23 19 13 19 30 31 26 18 15 11 7 7
9 10 11 11 16 8 18 10 9 15 14 20 21 26 16 23 14 22 38 37 30 26 23 22 22 24 21 23 22 19 28 25 26 29 28 33 35 32 24 22 22 20 17
12 13 17 16 9 11 13 22 27 29 21 24 20 14 16 14 11 24 30 33 33 31 25 26 22 21 24 23 18 26 26 22 23 28 38 40 38 34 31 27 25 24 25
19 21 23 22 16 6 6 23 22 27 32 29 33 32 26 28 25 20 12 20 35 38 36 26 29 32 33 29 29 32 30 26 26 22 35 37 31 34 35 31 28 28 27
20 20 26 25 27 19 17 20 21 13 18 26 30 34 40 37 38 38 35 25 18 23 35 33 32 31 34 39 35 30 29 29 32 28 39 41 44 41 37 35 32 31 29
19 22 25 29 28 23 24 26 27 20 22 24 20 19 27 37 45 46 47 48 46 36 28 30 35 36 36 36 40 37 40 39 39 36 46 48 51 44 38 38 35 34 33
17 16 24 23 21 23 26 27 27 29 22 21 18 18 26 26 25 28 34 44 52 59 59 44 41 39 43 42 44 43 45 45 47 46 50 57 56 45 36 38 37 36 36
15 18 20 22 22 20 23 18 16 21 19 22 21 28 29 32 32 33 30 30 34 39 45 56 64 58 54 51 54 55 53 51 53 52 53 57 59 50 42 39 40 39 39
10 11 14 16 20 24 18 18 18 17 20 25 28 30 31 32 32 39 41 38 29 36 46 45 43 49 60 68 57 52 55 49 52 58 57 58 62 59 51 44 40 41 42
9 9 12 16 18 21 24 24 28 29 23 27 36 40 34 40 40 36 41 43 37 39 39 40 46 46 50 56 59 58 55 51 59 59 65 61 64 65 60 55 50 46 44
3 5 8 17 23 27 35 39 38 41 39 46 47 41 39 42 49 46 46 41 43 41 41 39 43 45 52 45 62 66 64 70 51 59 69 70 64 69 66 61 60 54 48
9 10 13 18 27 32 36 35 39 38 44 55 50 44 40 47 52 50 51 48 42 45 42 45 42 43 47 45 49 52 49 62 79 74 62 69 67 69 71 66 63 62 56
13 16 26 31 24 27 30 37 44 51 55 61 56 56 60 53 50 53 57 50 48 50 53 49 46 45 48 47 45 40 25 23 39 44 63 74 69 66 73 73 66 63 62
18 20 29 23 28 28 35 42 51 53 59 60 63 65 63 57 58 55 57 58 58 55 55 54 50 46 45 44 39 43 46 54 49 25 58 44 57 68 71 70 71 63 60
22 25 31 32 26 33 42 49 53 56 60 67 65 66 69 67 61 59 59 58 64 63 62 65 60 55 54 61 56 50 51 55 55 65 59 69 44 23 54 68 67 65 60
19 24 25 29 34 38 45 51 55 61 62 67 65 67 67 65 62 60 59 61 63 61 63 67 65 68 66 56 56 56 56 51 53 56 60 75 84 68 48 42 39 51 57
Wind_Direction_850mb
316 142 142 143 122 108 96 82 59 68 44 47 32 30 38 52 55 51 53 51 54 53 52 64 78 59 66 74 83 89 91 88 78 70 61 55 61 59 56 48 47 51 49
252 143 134 151 140 126 111 94 54 26 17 24 23 26 35 34 39 47 41 46 54 49 48 63 64 82 81 78 87 94 92 84 74 67 66 50 45 56 54 48 45 49 46
151 101 119 120 114 131 121 190 22 14 19 34 29 31 32 32 32 25 343 14 25 31 43 68 67 61 75 76 77 84 93 89 79 59 53 56 18 43 51 43 43 47 44
137 39 84 82 109 133 128 214 338 61 43 45 38 35 37 38 26 9 354 303 4 10 30 53 90 88 88 67 70 86 94 96 75 54 79 41 353 49 56 48 46 40 41
111 158 274 52 99 121 165 114 61 49 43 21 23 28 36 43 25 352 345 19 335 334 278 35 99 114 121 99 75 98 103 102 86 67 6 308 314 62 54 57 46 42 41
135 217 313 108 119 129 120 13 10 14 8 2 10 15 25 37 31 18 5 359 340 339 274 256 261 239 230 195 123 126 124 111 84 81 72 346 15 0 60 62 50 44 41
119 339 53 33 13 8 345 331 311 289 302 335 342 350 0 14 15 6 0 352 340 321 279 266 240 247 254 263 244 179 162 124 90 83 300 250 282 294 276 40 34 30 42
115 61 46 41 30 20 14 357 338 321 308 324 321 324 332 342 346 341 343 344 342 327 293 267 252 243 257 258 265 237 200 172 127 246 272 276 293 288 259 265 312 333 57
93 68 324 23 341 6 19 37 26 10 352 320 306 309 316 323 327 325 317 320 328 331 318 297 272 248 251 258 263 263 248 218 161 169 262 277 283 310 234 235 263 182 177
126 93 15 327 307 321 320 334 348 345 355 357 2 345 329 310 312 325 315 319 317 319 315 306 289 268 258 256 259 276 266 249 213 224 241 268 274 279 229 204 199 206 199
208 6 190 201 7 317 80 282 303 320 336 349 8 352 360 0 337 327 321 327 321 310 303 301 299 288 271 263 264 284 280 256 227 232 262 264 271 274 250 237 239 239 210
349 308 278 257 254 327 345 332 315 309 316 311 310 307 318 346 329 300 306 306 310 302 295 289 290 291 281 273 269 290 297 272 245 222 232 251 262 270 263 249 248 247 237
55 44 28 22 305 6 335 272 266 277 281 284 296 287 288 261 279 312 325 328 322 312 302 297 293 286 284 273 263 269 282 285 239 265 242 247 257 264 262 255 250 247 245
59 60 54 51 48 56 299 268 281 270 270 285 278 277 282 278 284 287 266 301 308 305 310 313 306 300 292 277 269 249 254 250 271 250 267 278 272 264 260 254 252 251 250
67 62 62 63 52 43 33 29 20 351 293 290 284 278 273 274 276 277 276 272 276 297 302 297 279 277 280 284 282 266 246 242 256 245 249 257 263 267 262 254 250 252 250
75 64 66 56 48 47 46 35 23 41 22 21 1 324 288 280 277 277 275 275 271 268 264 264 274 281 272 276 272 274 258 246 230 240 247 252 259 265 257 254 249 248 250
68 53 65 51 55 51 44 35 20 10 11 7 4 347 327 334 327 308 291 280 275 268 267 261 255 252 254 256 259 256 263 264 249 234 240 249 255 260 254 248 249 246 247
76 47 31 44 27 33 31 21 18 357 7 351 355 332 322 326 322 314 306 301 303 296 287 274 259 257 256 255 257 259 255 253 259 249 240 247 254 255 252 247 244 243 243
83 64 38 20 22 1 7 350 346 338 345 335 321 313 314 316 315 314 309 304 298 297 303 302 296 267 266 256 260 266 260 253 256 256 246 242 251 256 252 248 244 242 240
97 41 21 359 355 350 341 333 333 336 335 322 323 321 325 316 314 310 308 309 304 295 294 302 302 295 271 262 263 257 254 263 255 254 254 245 247 252 252 248 244 242 240
13 311 2 336 335 342 337 336 335 337 331 322 326 322 317 306 309 305 305 311 305 298 296 296 295 300 299 287 274 266 266 250 251 255 255 252 243 250 252 248 246 244 242
244 294 298 311 326 334 327 329 323 322 308 311 320 312 302 297 297 300 301 298 299 299 297 290 288 292 290 296 293 286 288 270 254 245 252 257 254 243 251 251 248 246 244
285 277 289 305 313 310 319 310 311 307 312 315 317 309 306 308 299 296 298 295 290 288 289 288 289 283 287 288 284 281 274 256 269 261 257 252 254 249 247 252 251 247 245
267 279 287 291 286 300 299 301 308 312 311 311 306 308 309 305 298 294 292 291 289 289 285 285 285 282 279 286 285 273 273 271 275 278 249 242 237 247 249 243 253 253 246
268 272 265 277 294 292 296 311 310 307 304 305 306 304 303 304 302 300 298 293 286 283 283 278 277 278 276 273 274 278 278 270 271 266 271 257 242 243 233 244 247 252 253
267 269 277 281 294 297 308 307 305 306 307 307 308 307 305 304 301 297 293 285 283 286 284 280 278 271 269 272 274 268 267 266 262 266 265 263 263 245 255 226 226 243 255